| time (UTC) | temp F | wind direction | speed MPH | gust MPH | rain 1hr in | rain 24hr in | rain mn in | humidity % | barometer mb |
| 20260901130006 | 67 | 215 | 1.0 | 10.0 | 0.03 | 0.46 | 0.17 | 87 | 1015.7 |
| 20260901125503 | 67 | 200 | 3.0 | 10.0 | 0.03 | 0.46 | 0.17 | 86 | 1015.8 |
| 20260901125005 | 67 | 254 | 4.0 | 11.0 | 0.02 | 0.46 | 0.17 | 85 | 1015.9 |
| 20260901124504 | 68 | 243 | 3.0 | 11.0 | 0.02 | 0.45 | 0.16 | 85 | 1015.7 |
| 20260901124004 | 69 | 228 | 3.0 | 11.0 | 0.00 | 0.44 | 0.14 | 85 | 1015.5 |
| 20260901123505 | 69 | 260 | 2.0 | 10.0 | 0.00 | 0.44 | 0.14 | 86 | 1015.3 |
| 20260901123003 | 69 | 256 | 3.0 | 10.0 | 0.00 | 0.44 | 0.14 | 87 | 1015.4 |
| 20260901122503 | 68 | 214 | 3.0 | 10.0 | 0.00 | 0.44 | 0.14 | 87 | 1015.3 |
| 20260901122004 | 68 | 234 | 3.0 | 14.0 | 0.01 | 0.44 | 0.14 | 88 | 1015.4 |
| 20260901121505 | 68 | 268 | 3.0 | 14.0 | 0.05 | 0.44 | 0.14 | 89 | 1015.3 |
| 20260901121003 | 67 | 258 | 3.0 | 14.0 | 0.05 | 0.44 | 0.14 | 89 | 1015.5 |
| 20260901120503 | 67 | 252 | 2.0 | 8.0 | 0.05 | 0.44 | 0.14 | 89 | 1015.4 |
| 20260901120220 | 67 | 207 | 2.0 | 10.0 | 0.05 | 0.44 | 0.14 | 89 | 1015.3 |
| 20260901115503 | 67 | 212 | 1.0 | 10.0 | 0.05 | 0.44 | 0.14 | 88 | 1015.5 |
| 20260901115004 | 67 | 243 | 1.0 | 8.0 | 0.05 | 0.44 | 0.14 | 88 | 1015.4 |
| 20260901114719 | 67 | 240 | 1.0 | 8.0 | 0.05 | 0.44 | 0.14 | 88 | 1015.3 |
| 20260901114005 | 67 | 211 | 2.0 | 12.0 | 0.05 | 0.44 | 0.14 | 88 | 1015.1 |
| 20260901113503 | 68 | 191 | 2.0 | 12.0 | 0.05 | 0.44 | 0.14 | 87 | 1015.1 |
| 20260901113005 | 68 | 271 | 2.0 | 12.0 | 0.05 | 0.44 | 0.14 | 87 | 1014.9 |
| 20260901112503 | 68 | 242 | 1.0 | 8.0 | 0.05 | 0.44 | 0.14 | 86 | 1015.1 |
| 20260901112004 | 69 | 221 | 2.0 | 11.0 | 0.04 | 0.43 | 0.13 | 84 | 1015.2 |
| 20260901111506 | 69 | 220 | 3.0 | 12.0 | 0.00 | 0.39 | 0.09 | 84 | 1015.0 |
| 20260901111217 | 69 | 228 | 2.0 | 12.0 | 0.00 | 0.39 | 0.09 | 84 | 1015.1 |
| 20260901110504 | 68 | 188 | 2.0 | 11.0 | 0.00 | 0.39 | 0.09 | 84 | 1015.1 |
| 20260901110003 | 68 | 208 | 2.0 | 12.0 | 0.00 | 0.39 | 0.09 | 84 | 1015.1 |
| 20260901105506 | 69 | 181 | 2.0 | 12.0 | 0.00 | 0.39 | 0.09 | 84 | 1015.1 |
| 20260901105004 | 69 | 165 | 3.0 | 12.0 | 0.00 | 0.39 | 0.09 | 84 | 1015.0 |
| 20260901104503 | 68 | 204 | 2.0 | 12.0 | 0.00 | 0.39 | 0.09 | 85 | 1015.1 |
| 20260901104219 | 68 | 224 | 2.0 | 12.0 | 0.00 | 0.39 | 0.09 | 86 | 1015.0 |
| 20260901103504 | 68 | 255 | 2.0 | 15.0 | 0.00 | 0.39 | 0.09 | 86 | 1014.9 |
| 20260901103004 | 68 | 227 | 3.0 | 15.0 | 0.00 | 0.39 | 0.09 | 86 | 1014.8 |
| 20260901102503 | 67 | 220 | 4.0 | 11.0 | 0.00 | 0.39 | 0.09 | 87 | 1014.9 |
| 20260901102219 | 67 | 236 | 3.0 | 11.0 | 0.00 | 0.39 | 0.09 | 87 | 1014.8 |
| 20260901101720 | 67 | 248 | 3.0 | 14.0 | 0.00 | 0.39 | 0.09 | 88 | 1014.9 |
| 20260901101003 | 67 | 246 | 4.0 | 14.0 | 0.00 | 0.39 | 0.09 | 87 | 1014.7 |
| 20260901100718 | 67 | 255 | 3.0 | 16.0 | 0.00 | 0.39 | 0.09 | 87 | 1014.7 |
| 20260901100003 | 67 | 229 | 2.0 | 16.0 | 0.00 | 0.39 | 0.09 | 87 | 1014.6 |
| 20260901095716 | 67 | 217 | 2.0 | 11.0 | 0.00 | 0.39 | 0.09 | 87 | 1014.6 |
| 20260901095217 | 67 | 200 | 1.0 | 5.0 | 0.00 | 0.39 | 0.09 | 88 | 1014.6 |
| 20260901094505 | 67 | 219 | 2.0 | 14.0 | 0.00 | 0.39 | 0.09 | 88 | 1014.5 |
| 20260901094003 | 67 | 207 | 2.0 | 11.0 | 0.00 | 0.39 | 0.09 | 89 | 1014.2 |
| 20260901093504 | 67 | 205 | 3.0 | 11.0 | 0.00 | 0.39 | 0.09 | 89 | 1014.3 |
| 20260901093004 | 67 | 209 | 2.0 | 10.0 | 0.00 | 0.39 | 0.09 | 89 | 1014.3 |
| 20260901092503 | 67 | 165 | 2.0 | 10.0 | 0.00 | 0.39 | 0.09 | 89 | 1014.4 |
| 20260901092004 | 67 | 167 | 2.0 | 10.0 | 0.00 | 0.39 | 0.09 | 89 | 1014.6 |
| 20260901091505 | 67 | 176 | 2.0 | 8.0 | 0.00 | 0.39 | 0.09 | 90 | 1014.3 |
| 20260901091003 | 67 | 196 | 3.0 | 12.0 | 0.00 | 0.39 | 0.09 | 91 | 1014.3 |
| 20260901090722 | 67 | 212 | 3.0 | 12.0 | 0.00 | 0.39 | 0.09 | 91 | 1014.2 |
| 20260901090003 | 66 | 228 | 3.0 | 12.0 | 0.00 | 0.39 | 0.09 | 93 | 1014.4 |
| 20260901085504 | 66 | 211 | 2.0 | 12.0 | 0.00 | 0.39 | 0.09 | 94 | 1014.3 |
| 20260901085003 | 65 | 197 | 3.0 | 12.0 | 0.00 | 0.39 | 0.09 | 95 | 1014.2 |
| 20260901084503 | 65 | 186 | 2.0 | 8.0 | 0.00 | 0.39 | 0.09 | 95 | 1014.1 |
| 20260901084003 | 65 | 197 | 2.0 | 8.0 | 0.00 | 0.39 | 0.09 | 96 | 1014.3 |
| 20260901083503 | 65 | 205 | 1.0 | 8.0 | 0.00 | 0.39 | 0.09 | 96 | 1014.4 |
| 20260901083005 | 65 | 230 | 2.0 | 11.0 | 0.00 | 0.39 | 0.09 | 96 | 1014.1 |
| 20260901082503 | 65 | 244 | 2.0 | 11.0 | 0.00 | 0.39 | 0.09 | 96 | 1014.3 |
| 20260901082004 | 64 | 241 | 2.0 | 10.0 | 0.00 | 0.39 | 0.09 | 97 | 1014.2 |
| 20260901081503 | 64 | 238 | 2.0 | 10.0 | 0.00 | 0.39 | 0.09 | 97 | 1014.1 |
| 20260901081005 | 64 | 214 | 2.0 | 10.0 | 0.00 | 0.39 | 0.09 | 98 | 1014.1 |
| 20260901080504 | 64 | 209 | 2.0 | 10.0 | 0.00 | 0.39 | 0.09 | 98 | 1013.9 |
| 20260901080005 | 64 | 235 | 1.0 | 10.0 | 0.00 | 0.39 | 0.09 | 98 | 1014.1 |
| 20260901075503 | 64 | 249 | 2.0 | 7.0 | 0.00 | 0.39 | 0.09 | 99 | 1013.9 |
| 20260901075005 | 63 | 228 | 2.0 | 10.0 | 0.00 | 0.39 | 0.09 | 99 | 1014.1 |
| 20260901074504 | 63 | 226 | 2.0 | 10.0 | 0.00 | 0.39 | 0.09 | 99 | 1013.9 |
| 20260901074004 | 63 | 226 | 2.0 | 10.0 | 0.00 | 0.39 | 0.09 | 99 | 1013.9 |
| 20260901073505 | 63 | 226 | 1.0 | 10.0 | 0.00 | 0.39 | 0.09 | 99 | 1014.0 |
| 20260901073004 | 63 | 236 | 1.0 | 7.0 | 0.00 | 0.39 | 0.09 | 99 | 1013.8 |
| 20260901072504 | 63 | 248 | 1.0 | 5.0 | 0.02 | 0.39 | 0.09 | 99 | 1013.7 |
| 20260901072218 | 63 | 228 | 1.0 | 5.0 | 0.02 | 0.39 | 0.09 | 99 | 1013.6 |
| 20260901071505 | 62 | 242 | 0.0 | 4.0 | 0.02 | 0.39 | 0.09 | 99 | 1013.6 |
| 20260901071216 | 62 | 265 | 0.0 | 4.0 | 0.02 | 0.39 | 0.09 | 99 | 1013.8 |
| 20260901070504 | 62 | 258 | 0.0 | 4.0 | 0.02 | 0.39 | 0.09 | 99 | 1013.6 |
| 20260901070004 | 62 | 253 | 1.0 | 7.0 | 0.02 | 0.39 | 0.09 | 99 | 1013.6 |
| 20260901065504 | 62 | 250 | 1.0 | 7.0 | 0.02 | 0.39 | 0.09 | 99 | 1013.3 |
| 20260901065220 | 62 | 252 | 1.0 | 7.0 | 0.02 | 0.39 | 0.09 | 99 | 1013.6 |
| 20260901064505 | 61 | 233 | 0.0 | 3.0 | 0.02 | 0.39 | 0.09 | 99 | 1013.3 |